| time (UTC) | temp F | wind direction | speed MPH | gust MPH | rain 1hr in | rain 24hr in | rain mn in | humidity % | barometer mb |
| 20260505185414 | 77 | 130 | 7.0 | 9.0 | 0.00 | 0.00 | 0.00 | 47 | 1030.3 |
| 20260505184910 | 76 | 135 | 8.0 | 11.0 | 0.00 | 0.00 | 0.00 | 49 | 1030.5 |
| 20260505184407 | 77 | 119 | 9.0 | 17.0 | 0.00 | 0.00 | 0.00 | 48 | 1030.1 |
| 20260505183904 | 76 | 102 | 4.0 | 5.0 | 0.00 | 0.00 | 0.00 | 49 | 1030.3 |
| 20260505183401 | 77 | 149 | 4.0 | 5.0 | 0.00 | 0.00 | 0.00 | 50 | 1030.1 |
| 20260505182857 | 77 | 140 | 4.0 | 5.0 | 0.00 | 0.00 | 0.00 | 50 | 1030.3 |
| 20260505182354 | 77 | 226 | 5.0 | 6.0 | 0.00 | 0.00 | 0.00 | 45 | 1030.4 |
| 20260505181851 | 75 | 120 | 7.0 | 8.0 | 0.00 | 0.00 | 0.00 | 47 | 1030.4 |
| 20260505181348 | 76 | 134 | 7.0 | 8.0 | 0.00 | 0.00 | 0.00 | 50 | 1030.5 |
| 20260505180845 | 78 | 118 | 6.0 | 8.0 | 0.00 | 0.00 | 0.00 | 48 | 1030.6 |
| 20260505180341 | 78 | 118 | 6.0 | 8.0 | 0.00 | 0.00 | 0.00 | 48 | 1030.6 |
| 20260505175838 | 76 | 127 | 8.0 | 8.0 | 0.00 | 0.00 | 0.00 | 48 | 1030.6 |
| 20260505175334 | 75 | 133 | 6.0 | 11.0 | 0.00 | 0.00 | 0.00 | 49 | 1030.7 |
| 20260505174831 | 77 | 146 | 4.0 | 8.0 | 0.00 | 0.00 | 0.00 | 49 | 1030.6 |
| 20260505174328 | 77 | 149 | 6.0 | 12.0 | 0.00 | 0.00 | 0.00 | 48 | 1030.6 |
| 20260505173824 | 76 | 245 | 3.0 | 5.0 | 0.00 | 0.00 | 0.00 | 49 | 1030.6 |
| 20260505173320 | 76 | 255 | 3.0 | 5.0 | 0.00 | 0.00 | 0.00 | 48 | 1030.7 |
| 20260505172818 | 77 | 170 | 9.0 | 11.0 | 0.00 | 0.00 | 0.00 | 48 | 1030.7 |
| 20260505172316 | 76 | 206 | 1.0 | 2.0 | 0.00 | 0.00 | 0.00 | 48 | 1030.7 |
| 20260505171815 | 74 | 182 | 3.0 | 5.0 | 0.00 | 0.00 | 0.00 | 51 | 1030.9 |
| 20260505171313 | 76 | 210 | 3.0 | 4.0 | 0.00 | 0.00 | 0.00 | 48 | 1030.8 |
| 20260505170808 | 75 | 176 | 5.0 | 7.0 | 0.00 | 0.00 | 0.00 | 50 | 1031.0 |
| 20260505170306 | 76 | 211 | 3.0 | 4.0 | 0.00 | 0.00 | 0.00 | 48 | 1031.0 |
| 20260505165801 | 75 | 161 | 5.0 | 7.0 | 0.00 | 0.00 | 0.00 | 48 | 1031.1 |
| 20260505165257 | 74 | 113 | 7.0 | 8.0 | 0.00 | 0.00 | 0.00 | 51 | 1031.1 |
| 20260505164753 | 76 | 143 | 8.0 | 9.0 | 0.00 | 0.00 | 0.00 | 50 | 1031.1 |
| 20260505164250 | 77 | 114 | 8.0 | 11.0 | 0.00 | 0.00 | 0.00 | 49 | 1031.0 |
| 20260505163748 | 76 | 45 | 5.0 | 8.0 | 0.00 | 0.00 | 0.00 | 49 | 1031.2 |
| 20260505163247 | 76 | 151 | 2.0 | 4.0 | 0.00 | 0.00 | 0.00 | 46 | 1031.4 |
| 20260505162744 | 75 | 211 | 2.0 | 4.0 | 0.00 | 0.00 | 0.00 | 49 | 1031.1 |
| 20260505162241 | 75 | 142 | 6.0 | 7.0 | 0.00 | 0.00 | 0.00 | 47 | 1031.3 |
| 20260505161737 | 76 | 99 | 10.0 | 13.0 | 0.00 | 0.00 | 0.00 | 46 | 1031.3 |
| 20260505161235 | 75 | 184 | 11.0 | 14.0 | 0.00 | 0.00 | 0.00 | 49 | 1031.2 |
| 20260505160732 | 76 | 128 | 4.0 | 7.0 | 0.00 | 0.00 | 0.00 | 50 | 1031.3 |
| 20260505160230 | 76 | 206 | 0.0 | 0.0 | 0.00 | 0.00 | 0.00 | 52 | 1031.5 |
| 20260505153209 | 75 | 94 | 3.0 | 5.0 | 0.00 | 0.00 | 0.00 | 55 | 1031.5 |
| 20260505152706 | 75 | 196 | 2.0 | 5.0 | 0.00 | 0.00 | 0.00 | 52 | 1031.6 |
| 20260505152202 | 73 | 224 | 2.0 | 2.0 | 0.00 | 0.00 | 0.00 | 56 | 1031.8 |
| 20260505151657 | 75 | 207 | 6.0 | 7.0 | 0.00 | 0.00 | 0.00 | 53 | 1031.5 |
| 20260505151155 | 74 | 221 | 2.0 | 2.0 | 0.00 | 0.00 | 0.00 | 54 | 1031.6 |
| 20260505150650 | 73 | 277 | 2.0 | 2.0 | 0.00 | 0.00 | 0.00 | 53 | 1031.6 |
| 20260505150148 | 73 | 269 | 2.0 | 5.0 | 0.00 | 0.00 | 0.00 | 55 | 1031.7 |
| 20260505140616 | 72 | 254 | 3.0 | 6.0 | 0.00 | 0.00 | 0.00 | 58 | 1031.6 |
| 20260505140114 | 71 | 198 | 3.0 | 5.0 | 0.00 | 0.00 | 0.00 | 61 | 1031.7 |
| 20260505125030 | 66 | 255 | 2.0 | 2.0 | 0.00 | 0.00 | 0.00 | 74 | 1031.4 |
| 20260505124526 | 65 | 200 | 2.0 | 4.0 | 0.00 | 0.00 | 0.00 | 75 | 1031.5 |
| 20260505124023 | 65 | 143 | 2.0 | 2.0 | 0.00 | 0.00 | 0.00 | 75 | 1031.4 |
| 20260505123519 | 65 | 259 | 1.0 | 1.0 | 0.00 | 0.00 | 0.00 | 75 | 1031.4 |
| 20260505123015 | 65 | 254 | 0.0 | 1.0 | 0.00 | 0.00 | 0.00 | 75 | 1031.5 |
| 20260505122513 | 65 | 347 | 0.0 | 0.0 | 0.00 | 0.00 | 0.00 | 76 | 1031.4 |
| 20260505122010 | 63 | 330 | 0.0 | 0.0 | 0.00 | 0.00 | 0.00 | 79 | 1031.5 |
| 20260505121506 | 60 | 69 | 0.0 | 0.0 | 0.00 | 0.00 | 0.00 | 86 | 1031.5 |
| 20260505121003 | 58 | 236 | 0.0 | 0.0 | 0.00 | 0.00 | 0.00 | 89 | 1031.4 |
| 20260505120459 | 57 | 215 | 0.0 | 0.0 | 0.00 | 0.00 | 0.00 | 90 | 1031.2 |
| 20260505115958 | 56 | 211 | 0.0 | 0.0 | 0.00 | 0.00 | 0.00 | 91 | 1031.3 |
| 20260505115454 | 54 | 234 | 0.0 | 0.0 | 0.00 | 0.00 | 0.00 | 92 | 1031.4 |
| 20260505114953 | 54 | 239 | 0.0 | 0.0 | 0.00 | 0.00 | 0.00 | 93 | 1031.3 |
| 20260505114448 | 53 | 243 | 0.0 | 0.0 | 0.00 | 0.00 | 0.00 | 94 | 1031.4 |
| 20260505113946 | 52 | 248 | 0.0 | 0.0 | 0.00 | 0.00 | 0.00 | 94 | 1031.1 |
| 20260505113442 | 50 | 235 | 0.0 | 0.0 | 0.00 | 0.00 | 0.00 | 94 | 1031.0 |
| 20260505112937 | 50 | 241 | 0.0 | 0.0 | 0.00 | 0.00 | 0.00 | 94 | 1031.0 |
| 20260505112435 | 50 | 250 | 0.0 | 0.0 | 0.00 | 0.00 | 0.00 | 94 | 1031.1 |
| 20260505111932 | 48 | 246 | 0.0 | 0.0 | 0.00 | 0.00 | 0.00 | 94 | 1030.7 |
| 20260505111426 | 48 | 247 | 0.0 | 0.0 | 0.00 | 0.00 | 0.00 | 94 | 1030.8 |
| 20260505110923 | 46 | 246 | 0.0 | 0.0 | 0.00 | 0.00 | 0.00 | 94 | 1030.8 |
| 20260505110420 | 46 | 247 | 0.0 | 0.0 | 0.00 | 0.00 | 0.00 | 94 | 1030.6 |
| 20260505101850 | 45 | 257 | 0.0 | 0.0 | 0.00 | 0.00 | 0.00 | 94 | 1030.2 |
| 20260505101345 | 45 | 258 | 0.0 | 0.0 | 0.00 | 0.00 | 0.00 | 94 | 1030.1 |
| 20260505100841 | 45 | 258 | 0.0 | 0.0 | 0.00 | 0.00 | 0.00 | 94 | 1030.1 |
| 20260505100338 | 45 | 258 | 0.0 | 0.0 | 0.00 | 0.00 | 0.00 | 94 | 1030.1 |
| 20260505095834 | 45 | 252 | 0.0 | 0.0 | 0.00 | 0.00 | 0.00 | 94 | 1030.1 |
| 20260505095332 | 45 | 248 | 0.0 | 0.0 | 0.00 | 0.00 | 0.00 | 94 | 1030.0 |
| 20260505094827 | 45 | 248 | 0.0 | 0.0 | 0.00 | 0.00 | 0.00 | 94 | 1030.0 |
| 20260505094325 | 45 | 247 | 0.0 | 0.0 | 0.00 | 0.00 | 0.00 | 94 | 1029.9 |
| 20260505093820 | 45 | 257 | 0.0 | 0.0 | 0.00 | 0.00 | 0.00 | 94 | 1030.0 |
| 20260505093318 | 46 | 258 | 0.0 | 0.0 | 0.00 | 0.00 | 0.00 | 94 | 1030.0 |
| 20260505092814 | 46 | 258 | 0.0 | 0.0 | 0.00 | 0.00 | 0.00 | 94 | 1029.7 |
| 20260505092313 | 46 | 258 | 0.0 | 0.0 | 0.00 | 0.00 | 0.00 | 94 | 1029.7 |
| 20260505091810 | 46 | 258 | 0.0 | 0.0 | 0.00 | 0.00 | 0.00 | 94 | 1029.8 |
| 20260505091308 | 46 | 253 | 0.0 | 0.0 | 0.00 | 0.00 | 0.00 | 94 | 1029.8 |
| 20260505090805 | 46 | 249 | 0.0 | 0.0 | 0.00 | 0.00 | 0.00 | 94 | 1029.6 |
| 20260505090304 | 46 | 235 | 0.0 | 0.0 | 0.00 | 0.00 | 0.00 | 94 | 1029.5 |
| 20260505085800 | 46 | 227 | 0.0 | 0.0 | 0.00 | 0.00 | 0.00 | 94 | 1029.6 |
| 20260505085258 | 46 | 257 | 0.0 | 0.0 | 0.00 | 0.00 | 0.00 | 94 | 1029.5 |
| 20260505084755 | 46 | 258 | 0.0 | 0.0 | 0.00 | 0.00 | 0.00 | 94 | 1029.4 |
| 20260505084249 | 47 | 258 | 0.0 | 0.0 | 0.00 | 0.00 | 0.00 | 94 | 1029.5 |
| 20260505083745 | 47 | 258 | 0.0 | 0.0 | 0.00 | 0.00 | 0.00 | 94 | 1029.5 |
| 20260505083242 | 46 | 253 | 0.0 | 0.0 | 0.00 | 0.00 | 0.00 | 94 | 1029.4 |
| 20260505082738 | 46 | 251 | 0.0 | 0.0 | 0.00 | 0.00 | 0.00 | 94 | 1029.5 |
| 20260505082235 | 46 | 243 | 0.0 | 0.0 | 0.00 | 0.00 | 0.00 | 94 | 1029.4 |
| 20260505081731 | 46 | 242 | 0.0 | 0.0 | 0.00 | 0.00 | 0.00 | 94 | 1029.3 |
| 20260505081229 | 47 | 218 | 0.0 | 0.0 | 0.00 | 0.00 | 0.00 | 94 | 1029.5 |
| 20260505080726 | 46 | 238 | 0.0 | 0.0 | 0.00 | 0.00 | 0.00 | 94 | 1029.4 |
| 20260505080221 | 46 | 254 | 0.0 | 0.0 | 0.00 | 0.00 | 0.00 | 94 | 1029.4 |
| 20260505075717 | 47 | 254 | 0.0 | 0.0 | 0.00 | 0.00 | 0.00 | 94 | 1029.4 |
| 20260505075214 | 47 | 254 | 0.0 | 0.0 | 0.00 | 0.00 | 0.00 | 94 | 1029.4 |
| 20260505074712 | 47 | 254 | 0.0 | 0.0 | 0.00 | 0.00 | 0.00 | 94 | 1029.4 |
| 20260505074208 | 48 | 254 | 0.0 | 0.0 | 0.00 | 0.00 | 0.00 | 94 | 1029.5 |
| 20260505073706 | 48 | 254 | 0.0 | 0.0 | 0.00 | 0.00 | 0.00 | 94 | 1029.4 |
| 20260505073204 | 48 | 254 | 0.0 | 0.0 | 0.00 | 0.00 | 0.00 | 94 | 1029.6 |
| 20260505072659 | 47 | 253 | 0.0 | 0.0 | 0.00 | 0.00 | 0.00 | 94 | 1029.4 |
| 20260505072156 | 48 | 246 | 0.0 | 0.0 | 0.00 | 0.00 | 0.00 | 94 | 1029.3 |
| 20260505071651 | 48 | 243 | 0.0 | 0.0 | 0.00 | 0.00 | 0.00 | 94 | 1029.4 |
| 20260505071149 | 48 | 233 | 0.0 | 0.0 | 0.00 | 0.00 | 0.00 | 94 | 1029.5 |
| 20260505070646 | 48 | 243 | 0.0 | 0.0 | 0.00 | 0.00 | 0.00 | 94 | 1029.5 |
| 20260505070143 | 48 | 246 | 0.0 | 0.0 | 0.00 | 0.00 | 0.00 | 94 | 1029.5 |
| 20260505065639 | 48 | 245 | 0.0 | 0.0 | 0.00 | 0.00 | 0.00 | 94 | 1029.5 |
| 20260505065135 | 48 | 244 | 0.0 | 0.0 | 0.00 | 0.00 | 0.00 | 93 | 1029.6 |
| 20260505064632 | 49 | 265 | 0.0 | 0.0 | 0.00 | 0.00 | 0.00 | 94 | 1029.5 |
| 20260505064131 | 49 | 265 | 0.0 | 0.0 | 0.00 | 0.00 | 0.00 | 93 | 1029.5 |
| 20260505063628 | 49 | 266 | 0.0 | 0.0 | 0.00 | 0.00 | 0.00 | 93 | 1029.4 |
| 20260505063124 | 49 | 267 | 0.0 | 0.0 | 0.00 | 0.00 | 0.00 | 93 | 1029.6 |
| 20260505062620 | 49 | 269 | 0.0 | 0.0 | 0.00 | 0.00 | 0.00 | 93 | 1029.7 |
| 20260505062118 | 49 | 254 | 0.0 | 0.0 | 0.00 | 0.00 | 0.00 | 93 | 1029.6 |
| 20260505061615 | 49 | 250 | 0.0 | 0.0 | 0.00 | 0.00 | 0.00 | 93 | 1029.8 |
| 20260505061113 | 49 | 244 | 0.0 | 0.0 | 0.00 | 0.00 | 0.00 | 93 | 1029.7 |
| 20260505060610 | 49 | 243 | 0.0 | 0.0 | 0.00 | 0.00 | 0.00 | 93 | 1029.8 |
| 20260505060107 | 49 | 243 | 0.0 | 0.0 | 0.00 | 0.00 | 0.00 | 93 | 1029.9 |
| 20260505055602 | 49 | 243 | 0.0 | 0.0 | 0.00 | 0.00 | 0.00 | 93 | 1029.8 |
| 20260505055059 | 49 | 226 | 0.0 | 0.0 | 0.00 | 0.00 | 0.00 | 93 | 1029.9 |
| 20260505054556 | 49 | 250 | 0.0 | 0.0 | 0.00 | 0.00 | 0.00 | 93 | 1030.1 |
| 20260505054054 | 49 | 248 | 0.0 | 0.0 | 0.00 | 0.00 | 0.00 | 92 | 1030.0 |
| 20260505053551 | 50 | 248 | 0.0 | 0.0 | 0.00 | 0.00 | 0.00 | 93 | 1030.2 |
| 20260505053048 | 50 | 247 | 0.0 | 0.0 | 0.00 | 0.00 | 0.00 | 93 | 1030.2 |
| 20260505052544 | 50 | 241 | 0.0 | 0.0 | 0.00 | 0.00 | 0.00 | 92 | 1030.3 |
| 20260505052042 | 50 | 241 | 0.0 | 0.0 | 0.00 | 0.00 | 0.00 | 92 | 1030.3 |
| 20260505051539 | 50 | 235 | 0.0 | 0.0 | 0.00 | 0.00 | 0.00 | 92 | 1030.4 |
| 20260505051037 | 50 | 240 | 0.0 | 0.0 | 0.00 | 0.00 | 0.00 | 92 | 1030.5 |
| 20260505050535 | 51 | 236 | 0.0 | 0.0 | 0.00 | 0.00 | 0.00 | 92 | 1030.6 |
| 20260505041502 | 52 | 257 | 0.0 | 0.0 | 0.00 | 0.00 | 0.00 | 90 | 1030.2 |
| 20260505041000 | 51 | 263 | 0.0 | 0.0 | 0.00 | 0.00 | 0.00 | 89 | 1030.2 |
| 20260505040457 | 51 | 252 | 0.0 | 0.0 | 0.00 | 0.00 | 0.00 | 89 | 1030.2 |
| 20260505035954 | 51 | 249 | 0.0 | 0.0 | 0.00 | 0.00 | 0.00 | 89 | 1030.3 |
| 20260505035450 | 52 | 243 | 0.0 | 0.0 | 0.00 | 0.00 | 0.00 | 89 | 1030.1 |
| 20260505034947 | 52 | 243 | 0.0 | 0.0 | 0.00 | 0.00 | 0.00 | 88 | 1030.4 |
| 20260505034443 | 52 | 242 | 0.0 | 0.0 | 0.00 | 0.00 | 0.00 | 88 | 1030.2 |
| 20260505033941 | 52 | 238 | 0.0 | 0.0 | 0.00 | 0.00 | 0.00 | 88 | 1030.3 |
| 20260505033437 | 53 | 228 | 0.0 | 0.0 | 0.00 | 0.00 | 0.00 | 88 | 1030.3 |
| 20260505032936 | 53 | 224 | 0.0 | 0.0 | 0.00 | 0.00 | 0.00 | 88 | 1030.2 |
| 20260505032433 | 53 | 235 | 0.0 | 0.0 | 0.00 | 0.00 | 0.00 | 87 | 1030.3 |
| 20260505031929 | 53 | 239 | 0.0 | 0.0 | 0.00 | 0.00 | 0.00 | 88 | 1030.3 |
| 20260505031426 | 53 | 258 | 0.0 | 0.0 | 0.00 | 0.00 | 0.00 | 87 | 1030.4 |
| 20260505030923 | 54 | 259 | 0.0 | 0.0 | 0.00 | 0.00 | 0.00 | 86 | 1030.3 |
| 20260505030419 | 54 | 259 | 0.0 | 0.0 | 0.00 | 0.00 | 0.00 | 86 | 1030.3 |
| 20260505025914 | 54 | 259 | 0.0 | 0.0 | 0.00 | 0.00 | 0.00 | 86 | 1030.5 |
| 20260505025412 | 55 | 259 | 0.0 | 0.0 | 0.00 | 0.00 | 0.00 | 86 | 1030.4 |
| 20260505024911 | 55 | 259 | 0.0 | 0.0 | 0.00 | 0.00 | 0.00 | 85 | 1030.6 |
| 20260505024408 | 55 | 259 | 0.0 | 0.0 | 0.00 | 0.00 | 0.00 | 84 | 1030.3 |
| 20260505023904 | 55 | 259 | 0.0 | 0.0 | 0.00 | 0.00 | 0.00 | 83 | 1030.3 |
| 20260505023402 | 55 | 259 | 0.0 | 0.0 | 0.00 | 0.00 | 0.00 | 83 | 1030.5 |
| 20260505022859 | 56 | 259 | 0.0 | 0.0 | 0.00 | 0.00 | 0.00 | 83 | 1030.5 |
| 20260505022356 | 56 | 259 | 0.0 | 0.0 | 0.00 | 0.00 | 0.00 | 82 | 1030.4 |
| 20260505021853 | 56 | 251 | 0.0 | 0.0 | 0.00 | 0.00 | 0.00 | 81 | 1030.6 |
| 20260505021349 | 56 | 243 | 0.0 | 0.0 | 0.00 | 0.00 | 0.00 | 81 | 1030.4 |
| 20260505020845 | 57 | 261 | 0.0 | 0.0 | 0.00 | 0.00 | 0.00 | 81 | 1030.5 |
| 20260505020341 | 57 | 274 | 0.0 | 0.0 | 0.00 | 0.00 | 0.00 | 78 | 1030.5 |
| 20260505015838 | 57 | 258 | 0.0 | 0.0 | 0.00 | 0.00 | 0.00 | 77 | 1030.2 |
| 20260505015335 | 58 | 244 | 0.0 | 0.0 | 0.00 | 0.00 | 0.00 | 75 | 1030.2 |
| 20260505014833 | 58 | 244 | 0.0 | 0.0 | 0.00 | 0.00 | 0.00 | 74 | 1030.3 |
| 20260505014329 | 59 | 244 | 0.0 | 0.0 | 0.00 | 0.00 | 0.00 | 72 | 1030.3 |
| 20260505013826 | 60 | 200 | 1.0 | 1.0 | 0.00 | 0.00 | 0.00 | 70 | 1030.2 |
| 20260505013323 | 60 | 213 | 1.0 | 1.0 | 0.00 | 0.00 | 0.00 | 69 | 1030.2 |
| 20260505012822 | 60 | 236 | 0.0 | 0.0 | 0.00 | 0.00 | 0.00 | 69 | 1030.1 |
| 20260505012319 | 61 | 240 | 0.0 | 0.0 | 0.00 | 0.00 | 0.00 | 68 | 1030.0 |
| 20260505011815 | 61 | 235 | 0.0 | 0.0 | 0.00 | 0.00 | 0.00 | 67 | 1029.9 |
| 20260505011312 | 61 | 223 | 0.0 | 1.0 | 0.00 | 0.00 | 0.00 | 67 | 1029.9 |
| 20260505010808 | 61 | 182 | 1.0 | 1.0 | 0.00 | 0.00 | 0.00 | 67 | 1029.7 |
| 20260505010304 | 61 | 221 | 0.0 | 0.0 | 0.00 | 0.00 | 0.00 | 66 | 1030.0 |
| 20260505005800 | 62 | 218 | 0.0 | 0.0 | 0.00 | 0.00 | 0.00 | 65 | 1029.7 |
| 20260505005257 | 62 | 214 | 1.0 | 1.0 | 0.00 | 0.00 | 0.00 | 64 | 1029.7 |
| 20260505004755 | 63 | 164 | 2.0 | 2.0 | 0.00 | 0.00 | 0.00 | 63 | 1029.6 |
| 20260505004250 | 63 | 152 | 2.0 | 2.0 | 0.00 | 0.00 | 0.00 | 62 | 1029.6 |
| 20260505003748 | 64 | 201 | 1.0 | 1.0 | 0.00 | 0.00 | 0.00 | 61 | 1029.6 |
| 20260505003246 | 64 | 204 | 0.0 | 0.0 | 0.00 | 0.00 | 0.00 | 60 | 1029.5 |
| 20260505002742 | 64 | 234 | 0.0 | 0.0 | 0.00 | 0.00 | 0.00 | 60 | 1029.4 |
| 20260505002239 | 64 | 196 | 1.0 | 1.0 | 0.00 | 0.00 | 0.00 | 60 | 1029.5 |
| 20260505001737 | 64 | 188 | 1.0 | 1.0 | 0.00 | 0.00 | 0.00 | 59 | 1029.3 |
| 20260505001234 | 65 | 228 | 0.0 | 0.0 | 0.00 | 0.00 | 0.00 | 59 | 1029.5 |
| 20260505000731 | 65 | 243 | 0.0 | 0.0 | 0.00 | 0.00 | 0.00 | 59 | 1029.3 |
| 20260505000229 | 65 | 205 | 2.0 | 2.0 | 0.00 | 0.00 | 0.00 | 57 | 1029.3 |
| 20260504235725 | 66 | 204 | 1.0 | 1.0 | 0.00 | 0.00 | 0.00 | 56 | 1029.2 |
| 20260504235221 | 66 | 133 | 1.0 | 4.0 | 0.00 | 0.00 | 0.00 | 55 | 1029.3 |
| 20260504234719 | 67 | 159 | 2.0 | 2.0 | 0.00 | 0.00 | 0.00 | 54 | 1029.2 |
| 20260504234216 | 67 | 164 | 3.0 | 4.0 | 0.00 | 0.00 | 0.00 | 54 | 1029.2 |
| 20260504233712 | 67 | 176 | 3.0 | 5.0 | 0.00 | 0.00 | 0.00 | 52 | 1029.0 |
| 20260504233208 | 67 | 141 | 3.0 | 4.0 | 0.00 | 0.00 | 0.00 | 52 | 1029.1 |
| 20260504232705 | 68 | 125 | 4.0 | 6.0 | 0.00 | 0.00 | 0.00 | 51 | 1029.0 |
| 20260504232202 | 67 | 88 | 6.0 | 8.0 | 0.00 | 0.00 | 0.00 | 51 | 1028.8 |
| 20260504231659 | 68 | 154 | 3.0 | 4.0 | 0.00 | 0.00 | 0.00 | 51 | 1028.8 |
| 20260504231155 | 68 | 179 | 4.0 | 6.0 | 0.00 | 0.00 | 0.00 | 51 | 1028.9 |
| 20260504230651 | 68 | 188 | 1.0 | 1.0 | 0.00 | 0.00 | 0.00 | 50 | 1028.9 |
| 20260504230150 | 69 | 142 | 5.0 | 7.0 | 0.00 | 0.00 | 0.00 | 49 | 1028.9 |
| 20260504225648 | 69 | 142 | 4.0 | 5.0 | 0.00 | 0.00 | 0.00 | 49 | 1028.7 |
| 20260504225144 | 70 | 120 | 1.0 | 2.0 | 0.00 | 0.00 | 0.00 | 48 | 1028.8 |
| 20260504224641 | 70 | 129 | 9.0 | 12.0 | 0.00 | 0.00 | 0.00 | 47 | 1028.9 |
| 20260504224137 | 70 | 133 | 6.0 | 8.0 | 0.00 | 0.00 | 0.00 | 48 | 1028.9 |
| 20260504223635 | 70 | 149 | 3.0 | 5.0 | 0.00 | 0.00 | 0.00 | 47 | 1029.0 |
| 20260504223131 | 70 | 158 | 3.0 | 4.0 | 0.00 | 0.00 | 0.00 | 48 | 1028.7 |
| 20260504222628 | 71 | 128 | 3.0 | 6.0 | 0.00 | 0.00 | 0.00 | 47 | 1028.8 |
| 20260504222125 | 70 | 129 | 4.0 | 5.0 | 0.00 | 0.00 | 0.00 | 47 | 1028.9 |
| 20260504221622 | 71 | 103 | 8.0 | 9.0 | 0.00 | 0.00 | 0.00 | 47 | 1028.8 |
| 20260504221119 | 71 | 160 | 3.0 | 4.0 | 0.00 | 0.00 | 0.00 | 47 | 1028.9 |
| 20260504220615 | 71 | 89 | 3.0 | 5.0 | 0.00 | 0.00 | 0.00 | 46 | 1028.9 |
| 20260504220113 | 71 | 115 | 6.0 | 8.0 | 0.00 | 0.00 | 0.00 | 46 | 1028.8 |
| 20260504215609 | 73 | 133 | 6.0 | 7.0 | 0.00 | 0.00 | 0.00 | 45 | 1029.0 |
| 20260504215107 | 72 | 258 | 1.0 | 1.0 | 0.00 | 0.00 | 0.00 | 46 | 1028.8 |
| 20260504214602 | 72 | 176 | 4.0 | 6.0 | 0.00 | 0.00 | 0.00 | 46 | 1028.6 |
| 20260504214059 | 73 | 275 | 2.0 | 2.0 | 0.00 | 0.00 | 0.00 | 46 | 1028.8 |
| 20260504213555 | 73 | 124 | 4.0 | 8.0 | 0.00 | 0.00 | 0.00 | 45 | 1028.6 |
| 20260504213052 | 72 | 145 | 2.0 | 2.0 | 0.00 | 0.00 | 0.00 | 47 | 1028.6 |
| 20260504212548 | 73 | 36 | 10.0 | 13.0 | 0.00 | 0.00 | 0.00 | 45 | 1028.7 |
| 20260504212046 | 74 | 162 | 3.0 | 5.0 | 0.00 | 0.00 | 0.00 | 44 | 1028.6 |
| 20260504211542 | 73 | 240 | 3.0 | 5.0 | 0.00 | 0.00 | 0.00 | 46 | 1028.8 |
| 20260504211039 | 73 | 99 | 6.0 | 8.0 | 0.00 | 0.00 | 0.00 | 47 | 1028.8 |
| 20260504210536 | 73 | 127 | 14.0 | 17.0 | 0.00 | 0.00 | 0.00 | 46 | 1028.7 |
| 20260504210033 | 73 | 154 | 11.0 | 14.0 | 0.00 | 0.00 | 0.00 | 46 | 1028.7 |
| 20260504205531 | 73 | 119 | 8.0 | 9.0 | 0.00 | 0.00 | 0.00 | 46 | 1028.7 |
| 20260504205029 | 74 | 132 | 9.0 | 11.0 | 0.00 | 0.00 | 0.00 | 46 | 1029.1 |
| 20260504204527 | 74 | 116 | 6.0 | 9.0 | 0.00 | 0.00 | 0.00 | 47 | 1028.9 |
| 20260504204026 | 74 | 170 | 4.0 | 5.0 | 0.00 | 0.00 | 0.00 | 46 | 1028.7 |
| 20260504203523 | 74 | 237 | 4.0 | 7.0 | 0.00 | 0.00 | 0.00 | 45 | 1028.8 |
| 20260504203020 | 75 | 186 | 5.0 | 7.0 | 0.00 | 0.00 | 0.00 | 44 | 1028.9 |
| 20260504202516 | 74 | 126 | 11.0 | 15.0 | 0.00 | 0.00 | 0.00 | 46 | 1028.9 |
| 20260504202013 | 75 | 176 | 2.0 | 2.0 | 0.00 | 0.00 | 0.00 | 45 | 1029.0 |
| 20260504201510 | 75 | 191 | 5.0 | 7.0 | 0.00 | 0.00 | 0.00 | 44 | 1028.9 |
| 20260504201008 | 75 | 149 | 7.0 | 8.0 | 0.00 | 0.00 | 0.00 | 44 | 1028.6 |
| 20260504200504 | 75 | 151 | 3.0 | 4.0 | 0.00 | 0.00 | 0.00 | 44 | 1028.5 |
| 20260504200000 | 77 | 132 | 4.0 | 5.0 | 0.00 | 0.00 | 0.00 | 46 | 1028.7 |
| 20260504195456 | 76 | 116 | 8.0 | 13.0 | 0.00 | 0.00 | 0.00 | 45 | 1028.7 |
| 20260504194953 | 75 | 135 | 4.0 | 7.0 | 0.00 | 0.00 | 0.00 | 45 | 1028.8 |
| 20260504194449 | 75 | 152 | 9.0 | 14.0 | 0.00 | 0.00 | 0.00 | 46 | 1028.9 |
| 20260504193945 | 76 | 121 | 9.0 | 11.0 | 0.00 | 0.00 | 0.00 | 44 | 1029.0 |
| 20260504193443 | 76 | 270 | 3.0 | 5.0 | 0.00 | 0.00 | 0.00 | 44 | 1029.1 |
| 20260504192941 | 76 | 240 | 2.0 | 2.0 | 0.00 | 0.00 | 0.00 | 44 | 1029.2 |
| 20260504192438 | 75 | 161 | 6.0 | 8.0 | 0.00 | 0.00 | 0.00 | 45 | 1029.2 |
| 20260504191937 | 76 | 154 | 2.0 | 2.0 | 0.00 | 0.00 | 0.00 | 44 | 1029.4 |
| 20260504191435 | 76 | 190 | 5.0 | 7.0 | 0.00 | 0.00 | 0.00 | 41 | 1029.4 |
| 20260504190935 | 77 | 211 | 4.0 | 6.0 | 0.00 | 0.00 | 0.00 | 33 | 1029.5 |
| 20260504190431 | 78 | 253 | 3.0 | 6.0 | 0.00 | 0.00 | 0.00 | 33 | 1029.5 |
| 20260504185928 | 77 | 256 | 3.0 | 5.0 | 0.00 | 0.00 | 0.00 | 34 | 1029.4 |